カタリナ-ニート彗星

395P/Catalina-NEAT (2005)

English version
Home page
Updated on May 24, 2020

---------------------------------------------------------------------

・ プロフィール

符号 395P/2005 JD108
発見日 2005年5月12日、6月28日
発見光度 18.9等、18.4等
発見者 Catalina Sky Survey, Near-Earth-Asteroid Tracking Team

・ 写真集

・ 軌道要素

Epoch 2005 Aug. 18.0 TT = JDT 2453600.5                                         
T 2005 Aug. 10.49764 TT                                 Bell                    
q   4.0288628            (2000.0)            P               Q                  
n   0.06029556     Peri.   90.32580     +0.70143362     +0.71161659             
a   6.4408891      Node   224.30813     -0.67454310     +0.64472272             
e   0.3744865      Incl.    3.27529     -0.23017924     +0.27916742             
P  16.3                                                                         
From 187 observations 2005 May 12-2020 Apr. 27, mean residual 0".9.             

・ 星図

・ 光度変化

        m1 = 9.5 + 5 logΔ + 10.0 log r

---------------------------------------------------------------------

軌道要素はM.P.E.C. 2020-H202に掲載されたものです。
星図は StellaNavigator Ver.2.0 for Windows (アストロアーツ 編著 / アスキー出版局刊) で作成したものです。
光度グラフはComet for Windowsで作成したものです。

---------------------------------------------------------------------

Copyright(C) Seiichi Yoshida (comet@aerith.net). All rights reserved.